KORONAS-FOTON (33504 NORAD) Tracking and Keplerian Element Data

This shows tracking and keplerian element data for the satellite.

Feedback or suggestion? Click here.




ElementValue
Catalog33504
NameKORONAS-FOTON
Epoch Orbit54006
Epoch Day322.87596129
Epoch Year2018
RAAN76.3617
Inclination82.4432
Eccentricity0.0020737
Argument of Perigee111.9943
Mean Anonmoly248.3496
Mean Motion15.15284072
Decay Rate6.48E-06
L11 33504U 09003A 18322.87596129 .00000648 00000-0 32543-4 0 9999
L22 33504 82.4432 76.3617 0020737 111.9943 248.3496 15.15284072540063

Live tracking and technical data element details for KORONAS-FOTON (NORAD 33504). KORONAS-FOTON can be tracked NOW for your location showing map with azimuth and elevation plus other details from your city location.

Track the satellite on the map from your city or location and see movement details for azimuth, elevation, latitude, longitude, range, height, and movement on the map or in text.







IsCatalogInMostPopularTable: catalog: 33504, numindb: 41
Update: records affected: 1



GetName: 33504 KORONAS-FOTON

Hit Count: updated at: Wed, 21 Nov 2018 06:13:55 GMT